Regional Weather Roundup
Issued by NWS

Home | Current Version | Previous Version | Graphics & Text | Print | Product List | Glossary On
Versions: 1 2 3 4 5 6 7 8 9 10 11 12 13 14 15 16 17 18 19 20 21 22 23 24 25 26 27 28 29 30 31 32 33 34 35 36 37 38 39 40 41 42 43 44 45 46 47 48 49 50
794
ASUS43 KBIS 051302
RWRND

NORTH DAKOTA REGIONAL WEATHER ROUNDUP
NATIONAL WEATHER SERVICE BISMARCK ND
700 AM CST FRI FEB 05 2016

NOTE: "FAIR" INDICATES FEW OR NO CLOUDS BELOW 12,000 FEET WITH NO
SIGNIFICANT WEATHER AND/OR OBSTRUCTIONS TO VISIBILITY.


NDZ001>003-009>011-017-051400-
NORTHWEST NORTH DAKOTA

CITY           SKY/WX    TMP DP  RH WIND       PRES   REMARKS
WILLISTON      CLEAR     16  12  84 CALM      30.18R
MINOT          PTCLDY    22  14  71 W12       30.13R WCI  10
MINOT AFB      CLOUDY    20  17  87 NW9       30.13R WCI   9
$$

NDZ018>021-031>035-040>046-051400-
SOUTHWEST NORTH DAKOTA

CITY           SKY/WX    TMP DP  RH WIND       PRES   REMARKS
BISMARCK       CLOUDY    32  27  81 NW7       30.12R
DICKINSON      CLOUDY    22  20  92 NW9       30.13R WCI  12
GARRISON         N/A     19  16  88 NW9       30.13R WCI   8
HETTINGER ARPT CLOUDY    29  25  85 NW14      30.13R WCI  18
$$

NDZ004>008-012>016-024-026-027-054-051400-
NORTHEAST NORTH DAKOTA

CITY           SKY/WX    TMP DP  RH WIND       PRES   REMARKS
GRAND FORKS    CLOUDY    17  12  80 S5        30.12S WCI  10
GRND FRKS AFB  MOCLDY    16  12  87 CALM      30.11S
DEVILS LAKE    CLOUDY    16  14  92 NW5       30.09R WCI   9
$$

NDZ022-023-025-028>030-036>039-047>053-051400-
SOUTHEAST NORTH DAKOTA

CITY           SKY/WX    TMP DP  RH WIND       PRES   REMARKS
FARGO          CLOUDY    19  13  77 S15       30.13F WCI   5
JAMESTOWN      CLOUDY    25  21  85 W3        30.07R
$$





USA.gov is the U.S. government's official web portal to all federal, state and local government web resources and services.